Погода в Шафиркане

Узбекистан     40°07′07″N   64°30′15″E
темп.,
°C
ветер,
м/с
пор.,
м/с
влажн.,
%
обл.,
%
осадки,
мм/ч
давл.,
гПа
погр.,
м
27 февраля, сб
сб2723:00−2сз121494 0.0 1030117
02:00−2зсз1214100 0.0 1029118
05:00−3ююз0115100 0.0 102946
08:00−2ю341587 0.0 1029169
11:00+2ю551084 0.0 1029707
14:00+5ююз66100 0.0 1028906
17:00+6ююз45120 0.0 1027891
20:00+3ю23150 0.0 102829
28 февраля, вс
вс2823:00+2ююв23170 0.0 102722
02:00+1юв23200 0.0 102622
05:000вюв23260 0.0 102422
08:00+2вюв23320 0.0 102423
11:00+9вюв22230 0.0 1022487
14:00+12юв111857 0.0 1020869
17:00+13вюв111674 0.0 1018933
20:00+8всв0126100 0.0 101822
1 марта, пн
пн123:00+8св342699 0.0 101938
02:00+8вюв343085 0.0 101824
05:00+7юв454042 0.0 101765
08:00+7юв58400 0.0 1018145
11:00+13ююв711270 0.0 1017640
14:00+18ююз79200 0.0 1016944
17:00+18юз56150 0.0 10161161
20:00+12зсз34320 0.0 101840
2 марта, вт
вт223:00+10ссз343748 0.0 101935
02:00+8с224296 0.0 102023
05:00+9с453682 0.0 102042
08:00+8ссв233852 0.0 102125
11:00+14с452576 0.0 1021519
14:00+17ссз331943 0.0 10211264
17:00+17ссз441922 0.0 10201597
20:00+12ссз472959 0.0 1021150
3 марта, ср
ср323:00+9с6103831 0.0 1022266
02:00+7с595031 0.0 1021228
05:00+7с585065 0.0 1021256
08:00+7с4748100 0.0 1021263
11:00+11ссв5535100 0.0 1021396
14:00+15зсз23304 0.0 10191539
17:00+15ссз32302 0.0 10171542
20:00+11ссв343833 0.0 1017112